• In Latvia
  • List of Countries
  • For 7 days
  • Water Temperature
  • Satellite Maps
  • Weather Map
  • Weather Widgets
  • user-avatar
    Login

    Hourly Weather Cambridge

    Today, 22 June, Friday

    Time Temperature Precipitation Wind Pressure Humidity
    00:00 +9°C° 0 mm 3 mps 770 mmHg 86%
    01:00 +9°C° 0 mm 3 mps 770 mmHg 87%
    02:00 +9°C° 0 mm 3 mps 770 mmHg 88%
    03:00 +8°C° 0 mm 3 mps 770 mmHg 89%
    04:00 +9°C° 0 mm 3 mps 770 mmHg 85%
    05:00 +10°C° 0 mm 4 mps 770 mmHg 81%
    06:00 +12°C° 0 mm 4 mps 771 mmHg 76%
    07:00 +13°C° 0 mm 4 mps 771 mmHg 69%
    08:00 +14°C° 0 mm 4 mps 771 mmHg 63%
    09:00 +17°C° 0 mm 4 mps 771 mmHg 56%
    10:00 +17°C° 0 mm 4 mps 771 mmHg 53%
    11:00 +18°C° 0 mm 4 mps 771 mmHg 50%
    12:00 +19°C° 0 mm 4 mps 771 mmHg 48%
    13:00 +19°C° 0 mm 4 mps 771 mmHg 47%
    14:00 +20°C° 0 mm 4 mps 771 mmHg 47%
    15:00 +20°C° 0 mm 4 mps 771 mmHg 46%
    16:00 +19°C° 0 mm 3 mps 771 mmHg 50%
    17:00 +19°C° 0 mm 3 mps 771 mmHg 53%
    18:00 +18°C° 0 mm 2 mps 771 mmHg 57%
    19:00 +16°C° 0 mm 2 mps 771 mmHg 62%
    20:00 +14°C° 0 mm 2 mps 771 mmHg 67%
    21:00 +12°C° 0 mm 2 mps 771 mmHg 72%
    22:00 +12°C° 0 mm 2 mps 771 mmHg 75%
    23:00 +10°C° 0 mm 2 mps 771 mmHg 77%

    Tomorrow, 23 June, Saturday

    Time Temperature Precipitation Wind Pressure Humidity
    00:00 +10°C° 0 mm 2 mps 771 mmHg 80%
    01:00 +10°C° 0 mm 2 mps 771 mmHg 82%
    02:00 +9°C° 0 mm 2 mps 771 mmHg 83%
    03:00 +9°C° 0 mm 2 mps 770 mmHg 85%
    04:00 +10°C° 0 mm 3 mps 770 mmHg 80%
    05:00 +11°C° 0 mm 3 mps 770 mmHg 76%
    06:00 +12°C° 0 mm 3 mps 770 mmHg 72%
    07:00 +13°C° 0 mm 3 mps 770 mmHg 67%
    08:00 +16°C° 0 mm 3 mps 770 mmHg 63%
    09:00 +18°C° 0 mm 3 mps 770 mmHg 58%
    10:00 +19°C° 0 mm 3 mps 770 mmHg 55%
    11:00 +20°C° 0 mm 4 mps 770 mmHg 53%
    12:00 +21°C° 0 mm 4 mps 769 mmHg 50%
    13:00 +21°C° 0 mm 4 mps 769 mmHg 50%
    14:00 +22°C° 0 mm 4 mps 769 mmHg 50%
    15:00 +22°C° 0 mm 4 mps 769 mmHg 50%
    16:00 +21°C° 0 mm 3 mps 768 mmHg 54%
    17:00 +21°C° 0 mm 3 mps 768 mmHg 57%
    18:00 +20°C° 0 mm 3 mps 768 mmHg 61%
    19:00 +18°C° 0 mm 2 mps 768 mmHg 69%
    20:00 +16°C° 0 mm 2 mps 768 mmHg 76%
    21:00 +14°C° 0 mm 2 mps 768 mmHg 84%
    22:00 +13°C° 0 mm 1 mps 768 mmHg 85%
    23:00 +12°C° 0 mm 1 mps 768 mmHg 86%

    Day after tomorrow, 24 June, Sunday

    Time Temperature Precipitation Wind Pressure Humidity
    00:00 +11°C° 0 mm 1 mps 768 mmHg 87%
    01:00 +11°C° 0 mm 1 mps 768 mmHg 88%
    02:00 +10°C° 0 mm 0 mps 768 mmHg 88%
    03:00 +10°C° 0 mm 0 mps 768 mmHg 88%
    04:00 +11°C° 0 mm 0 mps 768 mmHg 85%
    05:00 +12°C° 0 mm 0 mps 768 mmHg 83%
    06:00 +13°C° 0 mm 0 mps 768 mmHg 80%
    07:00 +15°C° 0 mm 0 mps 768 mmHg 74%
    08:00 +17°C° 0 mm 0 mps 768 mmHg 68%
    09:00 +19°C° 0 mm 0 mps 768 mmHg 62%
    10:00 +20°C° 0 mm 0 mps 768 mmHg 59%
    11:00 +23°C° 0 mm 1 mps 768 mmHg 56%
    12:00 +24°C° 0 mm 1 mps 768 mmHg 52%
    13:00 +24°C° 0 mm 1 mps 768 mmHg 53%
    14:00 +24°C° 0 mm 1 mps 768 mmHg 53%
    15:00 +24°C° 0 mm 1 mps 768 mmHg 54%
    16:00 +24°C° 0 mm 1 mps 767 mmHg 57%
    17:00 +23°C° 0 mm 1 mps 767 mmHg 60%
    18:00 +23°C° 0 mm 2 mps 767 mmHg 62%
    19:00 +20°C° 0 mm 2 mps 767 mmHg 69%
    20:00 +18°C° 0 mm 2 mps 768 mmHg 75%
    21:00 +16°C° 0 mm 2 mps 768 mmHg 81%
    22:00 +15°C° 0 mm 2 mps 768 mmHg 82%
    23:00 +14°C° 0 mm 2 mps 768 mmHg 82%

    25 June, Monday

    Time Temperature Precipitation Wind Pressure Humidity
    00:00 +14°C° 0 mm 2 mps 768 mmHg 83%
    01:00 +14°C° 0 mm 2 mps 768 mmHg 84%
    02:00 +14°C° 0 mm 2 mps 768 mmHg 85%
    03:00 +13°C° 0 mm 2 mps 768 mmHg 86%
    04:00 +15°C° 0 mm 2 mps 768 mmHg 84%
    05:00 +16°C° 0 mm 2 mps 768 mmHg 81%
    06:00 +17°C° 0 mm 2 mps 768 mmHg 79%
    07:00 +19°C° 0 mm 2 mps 768 mmHg 73%
    08:00 +21°C° 0 mm 1 mps 768 mmHg 68%
    09:00 +23°C° 0 mm 1 mps 768 mmHg 62%
    10:00 +24°C° 0 mm 1 mps 768 mmHg 59%
    11:00 +25°C° 0 mm 1 mps 768 mmHg 55%
    12:00 +27°C° 0 mm 1 mps 768 mmHg 51%
    13:00 +27°C° 0 mm 1 mps 768 mmHg 50%
    14:00 +27°C° 0 mm 1 mps 768 mmHg 49%
    15:00 +27°C° 0 mm 1 mps 768 mmHg 48%
    16:00 +27°C° 0 mm 2 mps 768 mmHg 53%
    17:00 +26°C° 0 mm 2 mps 768 mmHg 57%
    18:00 +25°C° 0 mm 3 mps 768 mmHg 62%
    19:00 +22°C° 0 mm 3 mps 768 mmHg 69%
    20:00 +20°C° 0 mm 3 mps 768 mmHg 76%
    21:00 +18°C° 0 mm 3 mps 769 mmHg 83%
    22:00 +17°C° 0 mm 2 mps 769 mmHg 84%
    23:00 +16°C° 0 mm 2 mps 769 mmHg 85%

    26 June, Tuesday

    Time Temperature Precipitation Wind Pressure Humidity
    00:00 +15°C° 0 mm 2 mps 769 mmHg 85%
    01:00 +15°C° 0 mm 2 mps 768 mmHg 86%
    02:00 +14°C° 0 mm 1 mps 768 mmHg 87%
    03:00 +14°C° 0 mm 1 mps 768 mmHg 88%
    04:00 +15°C° 0 mm 1 mps 768 mmHg 85%
    05:00 +16°C° 0 mm 1 mps 768 mmHg 83%
    06:00 +18°C° 0 mm 1 mps 768 mmHg 80%
    07:00 +19°C° 0 mm 2 mps 768 mmHg 73%
    08:00 +20°C° 0 mm 2 mps 768 mmHg 67%
    09:00 +23°C° 0 mm 2 mps 769 mmHg 60%
    10:00 +24°C° 0 mm 3 mps 768 mmHg 54%
    11:00 +25°C° 0 mm 3 mps 768 mmHg 49%
    12:00 +26°C° 0 mm 4 mps 768 mmHg 43%
    13:00 +26°C° 0 mm 4 mps 768 mmHg 42%
    14:00 +26°C° 0 mm 4 mps 767 mmHg 41%
    15:00 +26°C° 0 mm 4 mps 767 mmHg 41%
    16:00 +25°C° 0 mm 4 mps 767 mmHg 45%
    17:00 +23°C° 0 mm 4 mps 767 mmHg 50%
    18:00 +22°C° 0 mm 4 mps 767 mmHg 54%
    19:00 +20°C° 0 mm 3 mps 767 mmHg 61%
    20:00 +17°C° 0 mm 3 mps 767 mmHg 67%
    21:00 +14°C° 0 mm 3 mps 767 mmHg 74%
    22:00 +13°C° 0 mm 3 mps 767 mmHg 75%
    23:00 +12°C° 0 mm 3 mps 767 mmHg 76%

    27 June, Wednesday

    Time Temperature Precipitation Wind Pressure Humidity
    00:00 +12°C° 0 mm 3 mps 767 mmHg 77%
    01:00 +11°C° 0 mm 3 mps 767 mmHg 80%
    02:00 +11°C° 0 mm 3 mps 767 mmHg 84%
    03:00 +11°C° 0 mm 3 mps 767 mmHg 88%
    04:00 +12°C° 0 mm 3 mps 767 mmHg 83%
    05:00 +14°C° 0 mm 3 mps 766 mmHg 78%
    06:00 +16°C° 0 mm 3 mps 766 mmHg 73%
    07:00 +18°C° 0 mm 4 mps 766 mmHg 66%
    08:00 +20°C° 0 mm 4 mps 766 mmHg 60%
    09:00 +22°C° 0 mm 4 mps 766 mmHg 53%
    10:00 +23°C° 0 mm 4 mps 766 mmHg 49%
    11:00 +25°C° 0 mm 5 mps 766 mmHg 46%
    12:00 +26°C° 0 mm 5 mps 765 mmHg 42%
    13:00 +26°C° 0 mm 5 mps 765 mmHg 43%
    14:00 +26°C° 0 mm 5 mps 765 mmHg 43%
    15:00 +27°C° 0 mm 5 mps 764 mmHg 44%
    16:00 +26°C° 0 mm 5 mps 764 mmHg 48%
    17:00 +25°C° 0 mm 4 mps 764 mmHg 53%
    18:00 +23°C° 0 mm 4 mps 764 mmHg 57%
    19:00 +20°C° 0 mm 4 mps 764 mmHg 64%
    20:00 +18°C° 0 mm 4 mps 764 mmHg 71%
    21:00 +16°C° 0 mm 3 mps 765 mmHg 78%
    22:00 +16°C° 0 mm 3 mps 765 mmHg 81%
    23:00 +14°C° 0 mm 3 mps 764 mmHg 84%
    Show more